Regional Weather Roundup
Issued by NWS

Home | Current Version | Previous Version | Graphics & Text | Print | Product List | Glossary On
Versions: 1 2 3 4 5 6 7 8 9 10 11 12 13 14 15 16 17 18 19 20 21 22 23 24 25 26 27 28 29 30 31 32 33 34 35 36 37 38 39 40 41 42 43 44 45 46 47 48 49 50
600
ASUS43 KOAX 260410
RWRNE

WEATHER ROUNDUP FOR NEBRASKA
NATIONAL WEATHER SERVICE OMAHA NE
1100 PM CDT TUE JUL 25 2017

NOTES: SATELLITE DATA IS BEING USED TO AUGMENT CLOUD COVER ABOVE
       12000 FEET.
       "FAIR" INDICATES FEW OR NO CLOUDS BELOW 12,000 FEET WITH NO
       SIGNIFICANT WEATHER AND/OR OBSTRUCTIONS TO VISIBILITY.


NEZ001>004-019>022-054>056-260500-
NEBRASKA PANHANDLE

CITY           SKY/WX    TMP DP  RH WIND       PRES   REMARKS
SCOTTSBLUFF    LGT RAIN  79  57  46 N15       30.05R
ALLIANCE       PTCLDY    76  62  62 N15G25    30.02R
CHADRON        CLOUDY    79  59  50 N20G25    30.04R
GORDON         FAIR      72  65  79 NE10      30.03S
KIMBALL        CLOUDY    75  55  49 NW12      30.11R
SIDNEY         PTCLDY    81  58  45 N18G25    30.03R
$$

NEZ057>060-069>072-079>082-260500-
SOUTHWEST NEBRASKA

CITY           SKY/WX    TMP DP  RH WIND       PRES   REMARKS
NORTH PLATTE   CLOUDY    89  65  44 S13       29.87R HX  91
IMPERIAL       TSTM      74  63  68 NW9G23    29.98R
LEXINGTON      CLOUDY    84  68  59 SE12      29.91R
MCCOOK         CLOUDY    88  65  46 S12       29.89R HX  90
OGALLALA       CLOUDY    79  64  60 S12       29.94F THUNDER
$$

NEZ005>010-023>029-035>040-094-260500-
NORTH CENTRAL NEBRASKA

CITY           SKY/WX    TMP DP  RH WIND       PRES   REMARKS
VALENTINE      LGT RAIN  72  66  81 SE14      29.98F
AINSWORTH      TSTM      69  68  96 NE16      29.99F
BROKEN BOW     CLOUDY    84  67  56 SE10      29.91R
O`NEILL        CLOUDY    70  69  96 NE17      29.97F
ORD            CLOUDY    84  62  47 SE13      29.90R
THEDFORD       CLOUDY    72  66  81 NE9       29.94F
$$

NEZ041-046>049-061>064-073>077-083>087-260500-
SOUTH CENTRAL NEBRASKA

CITY           SKY/WX    TMP DP  RH WIND       PRES   REMARKS
GRAND ISLAND   CLOUDY    82  69  64 SE18G24   29.93R
AURORA         CLOUDY    81  66  60 S12G17    29.94R
HASTINGS       PTCLDY    82  65  56 SE14      29.94S
HEBRON         CLOUDY    83  69  62 SE10G16   29.95R
HOLDREGE       PTCLDY    79  66  64 SE8       29.93R
KEARNEY        PTCLDY    81  66  60 S15       29.92R
YORK           PTCLDY    81  68  65 SE10      29.95R
$$

NEZ011>018-030>034-042>045-260500-
NORTHEAST NEBRASKA

CITY           SKY/WX    TMP DP  RH WIND       PRES   REMARKS
NORFOLK        CLOUDY    83  65  54 SE10      29.93R
ALBION         CLOUDY    83  69  62 SE8       29.94R
BLAIR          CLOUDY    85  72  65 S9G17     29.99R HX  90
COLUMBUS       MOCLDY    83  68  60 SE12      29.95R
FREMONT        CLOUDY    84  68  58 SE10G17   29.98R
TEKAMAH        MOCLDY    81  71  71 SE7       29.96R
WAYNE          CLOUDY    82  73  75 S9        29.96R
$$

NEZ050>053-065>068-078-088>093-260500-
SOUTHEAST NEBRASKA

CITY           SKY/WX    TMP DP  RH WIND       PRES   REMARKS
LINCOLN        PTCLDY    84  68  58 S14       29.97R
OMAHA EPPLEY   CLOUDY    85  73  67 SE15      29.98R HX  91
BEATRICE       PTCLDY    84  70  61 SE14      29.97R
FALLS CITY     PTCLDY    82  71  69 SE10      29.99R
NEBRASKA CITY  CLOUDY    80  73  77 S7        29.99S
PLATTSMOUTH    CLOUDY    82  72  72 SE10G17   29.99R
$$

NEZ044-045-051>053-067-260500-
OMAHA AREA

CITY           SKY/WX    TMP DP  RH WIND       PRES   REMARKS
OMAHA EPPLEY   CLOUDY    85  73  67 SE15      29.98R HX  91
BLAIR          CLOUDY    85  72  65 S9G17     29.99R HX  90
FREMONT        CLOUDY    84  68  58 SE10G17   29.98R
MILLARD        CLOUDY    85  74  70 SE9       29.98R HX  93
OFFUTT AFB     CLEAR     81  73  78 SE7       29.98R
PLATTSMOUTH    CLOUDY    82  72  72 SE10G17   29.99R
WAHOO          FAIR      80  68  66 SE8       29.97R
$$




USA.gov is the U.S. government's official web portal to all federal, state and local government web resources and services.